Temp
17 18 18 19 19 19 20 20 21 21 22 23 24 24 25 27 27 28 29 29 28 28 28 28 28 27 25 25 25 25 23 23 24 23 22 22 21 21 20 19 19 18 18 17 16
17 17 18 18 19 19 20 20 21 21 22 22 23 24 25 27 28 28 28 29 29 28 28 28 28 27 25 25 26 24 21 25 26 24 23 23 22 20 20 19 17 17 18 17 16
16 17 17 17 18 19 20 20 20 21 21 22 23 24 25 26 27 28 28 28 28 28 28 28 28 28 27 27 26 24 24 25 25 25 23 23 22 21 19 18 18 16 16 16 16
15 16 17 17 18 18 19 20 20 21 21 22 22 23 24 24 25 28 28 28 28 28 28 28 29 28 26 26 27 27 27 26 25 24 23 23 22 20 20 19 20 18 18 16 16
14 14 15 16 17 18 19 19 20 20 21 21 22 22 22 23 26 28 28 28 28 29 28 28 29 28 26 27 28 26 25 26 25 24 23 23 21 20 18 17 18 17 17 17 16
14 14 14 15 16 17 18 19 20 20 21 21 21 21 21 19 27 28 28 28 27 28 28 28 28 29 28 28 27 28 25 25 24 24 22 20 20 20 17 17 16 17 17 17 17
13 14 15 15 16 17 18 19 19 20 20 21 21 21 20 22 26 27 27 27 27 28 29 29 29 28 29 27 27 26 23 23 23 22 21 22 19 18 17 17 17 17 17 17 17
13 14 14 15 16 17 18 19 19 20 20 20 20 20 20 25 25 26 27 27 26 27 28 29 29 29 28 27 25 24 22 22 24 23 22 22 19 19 18 17 17 17 17 18 18
13 13 14 15 15 17 18 19 20 20 20 20 20 19 21 24 24 26 26 27 27 27 28 29 28 29 26 23 22 21 22 24 25 25 23 22 19 19 18 19 18 18 18 18 18
12 13 14 14 15 16 17 18 18 19 19 19 18 19 22 24 24 24 26 27 28 27 28 29 28 23 21 22 22 23 23 23 24 25 24 21 19 19 19 19 19 19 19 19 19
11 13 13 14 15 15 17 17 18 17 17 17 18 19 21 22 23 25 25 26 26 26 24 26 23 23 24 23 25 25 24 24 24 26 24 22 20 19 19 19 19 19 19 19 20
10 11 13 14 14 14 14 13 9 9 9 19 19 19 22 20 19 25 25 25 25 23 23 24 22 24 25 26 26 26 26 24 25 25 24 21 21 20 19 19 19 19 19 20 20
9 10 12 13 14 13 13 12 12 11 9 17 20 21 22 21 20 24 24 25 24 22 22 22 24 25 26 26 25 25 24 24 26 25 24 23 21 20 20 20 20 20 20 20 20
8 9 10 12 12 12 13 13 13 13 11 15 17 20 21 22 21 24 24 26 24 23 21 23 25 26 26 27 26 23 25 26 25 24 23 24 22 20 21 20 21 20 20 20 20
8 8 9 9 9 10 12 14 15 15 14 20 19 22 21 22 24 24 25 25 23 23 22 23 24 24 25 27 26 26 27 26 26 23 24 24 23 22 21 21 21 21 21 20 21
8 8 8 9 9 10 11 14 15 12 13 18 21 19 19 21 23 25 24 26 26 24 24 24 27 25 26 28 29 29 29 27 22 21 21 23 23 22 20 23 22 22 22 22 22
7 8 8 8 9 10 11 12 10 10 16 19 20 19 19 19 21 23 22 22 21 20 22 24 25 27 29 28 27 28 23 22 22 21 21 22 22 26 24 25 24 24 23 22 23
7 8 9 9 9 10 10 9 10 13 13 15 14 17 19 20 20 22 22 22 22 22 18 21 23 25 26 25 25 25 23 21 22 22 23 22 23 26 28 27 26 25 25 23 23
7 8 8 8 8 9 9 7 9 11 13 12 14 16 15 15 18 21 20 24 23 20 22 19 22 26 27 27 27 25 24 26 24 21 22 22 25 27 25 26 26 25 24 24 24
6 8 8 8 8 8 5 6 7 11 12 11 10 12 13 14 15 17 20 21 23 23 23 22 23 24 28 27 26 25 25 24 19 23 24 24 25 26 25 25 25 25 24 25 25
6 7 8 7 7 7 3 3 8 11 11 11 10 11 12 13 13 15 18 23 23 22 22 22 21 24 26 25 27 25 24 22 21 20 22 23 25 23 24 25 25 25 26 26 26
4 2 8 8 6 3 3 7 9 9 10 10 12 11 12 13 12 14 16 18 19 21 22 21 19 22 24 26 26 26 25 23 22 23 19 22 24 28 24 26 27 27 26 28 29
3 3 7 7 3 2 4 6 7 8 9 10 10 12 12 11 11 13 15 19 18 18 20 21 19 20 25 24 25 25 24 22 20 19 21 23 24 25 25 25 28 28 28 27 29
3 1 5 5 5 4 4 4 6 8 8 9 10 11 11 11 11 12 14 16 17 18 20 20 17 23 22 25 24 25 25 23 23 20 22 22 26 27 25 25 26 28 28 28 27
3 3 3 3 3 2 3 4 6 6 9 9 9 10 10 10 11 12 14 15 17 19 18 19 20 20 24 23 26 26 26 23 24 23 25 26 24 26 26 24 26 29 29 28 27
3 2 2 2 3 3 4 4 5 7 7 7 7 10 10 9 11 12 13 14 15 16 15 15 20 21 22 25 26 25 25 25 25 23 26 25 25 25 28 29 26 27 28 27 27
2 2 2 3 1 3 4 4 5 5 7 7 8 7 9 10 11 11 10 12 14 14 14 14 17 20 24 23 24 23 26 26 26 24 26 25 26 27 28 28 27 27 28 29 29
Height
1529 1526 1525 1523 1521 1520 1518 1516 1515 1513 1512 1510 1509 1508 1505 1503 1503 1502 1502 1503 1502 1503 1503 1503 1502 1503 1502 1501 1501 1502 1511 1516 1512 1513 1513 1513 1514 1517 1519 1521 1523 1525 1526 1532 1539
1528 1526 1523 1522 1520 1518 1516 1515 1513 1512 1510 1509 1508 1506 1504 1502 1501 1501 1502 1500 1500 1501 1501 1501 1501 1499 1498 1496 1497 1499 1510 1505 1498 1503 1507 1511 1515 1515 1520 1523 1524 1525 1529 1535 1539
1526 1525 1522 1520 1518 1516 1514 1513 1511 1510 1509 1507 1506 1505 1503 1502 1501 1500 1499 1499 1499 1500 1500 1499 1498 1497 1495 1493 1493 1495 1501 1494 1498 1501 1506 1512 1517 1517 1520 1525 1522 1524 1528 1535 1540
1525 1523 1521 1518 1515 1513 1512 1510 1509 1508 1506 1505 1504 1503 1502 1503 1507 1498 1497 1497 1499 1499 1499 1497 1496 1496 1496 1494 1491 1494 1492 1492 1498 1504 1509 1512 1515 1518 1520 1521 1520 1525 1529 1534 1540
1524 1521 1518 1516 1513 1510 1509 1507 1506 1505 1504 1502 1501 1500 1501 1500 1495 1497 1496 1496 1497 1499 1498 1497 1496 1495 1496 1492 1492 1495 1496 1497 1499 1505 1511 1514 1518 1521 1525 1523 1522 1527 1532 1537 1541
1523 1520 1517 1513 1510 1507 1505 1503 1502 1500 1500 1499 1498 1497 1498 1496 1492 1493 1494 1494 1495 1498 1498 1496 1497 1495 1492 1492 1493 1494 1497 1502 1505 1508 1512 1516 1522 1523 1530 1528 1528 1531 1535 1539 1542
1521 1518 1515 1511 1507 1504 1501 1499 1498 1496 1495 1495 1495 1493 1492 1486 1488 1488 1488 1490 1493 1496 1495 1496 1496 1497 1495 1494 1497 1500 1505 1509 1515 1511 1516 1516 1525 1528 1529 1530 1531 1535 1538 1541 1543
1519 1516 1512 1509 1504 1500 1497 1495 1493 1491 1491 1492 1491 1490 1484 1482 1481 1480 1484 1485 1490 1492 1494 1494 1495 1495 1496 1497 1500 1506 1510 1524 1513 1513 1516 1515 1534 1530 1530 1533 1535 1537 1539 1540 1542
1517 1513 1509 1506 1501 1497 1493 1490 1488 1486 1487 1488 1489 1489 1480 1476 1474 1476 1478 1479 1486 1489 1491 1493 1494 1494 1496 1503 1514 1514 1525 1518 1515 1508 1511 1516 1532 1529 1530 1533 1535 1537 1537 1539 1541
1516 1512 1507 1503 1499 1494 1490 1487 1484 1483 1484 1485 1486 1490 1476 1474 1472 1471 1472 1475 1482 1486 1489 1490 1491 1495 1499 1506 1531 1521 1520 1518 1517 1509 1510 1518 1523 1525 1529 1532 1533 1534 1535 1536 1538
1514 1510 1506 1502 1497 1493 1490 1487 1488 1486 1483 1479 1479 1474 1470 1470 1470 1469 1469 1471 1478 1483 1489 1487 1496 1505 1498 1496 1497 1500 1506 1513 1508 1504 1511 1517 1521 1521 1525 1529 1531 1531 1532 1533 1535
1513 1508 1505 1501 1497 1494 1493 1491 1499 1502 1487 1474 1471 1469 1466 1471 1472 1466 1469 1470 1473 1482 1483 1491 1500 1488 1488 1492 1495 1498 1504 1512 1505 1501 1508 1517 1518 1519 1521 1520 1527 1528 1529 1530 1533
1514 1508 1503 1500 1496 1496 1494 1495 1497 1496 1492 1466 1462 1459 1460 1467 1467 1461 1467 1467 1468 1478 1481 1492 1488 1484 1488 1491 1499 1500 1507 1508 1509 1503 1508 1514 1524 1524 1522 1523 1526 1526 1527 1529 1531
1513 1509 1503 1498 1498 1495 1494 1495 1495 1492 1494 1466 1454 1445 1449 1457 1457 1456 1461 1466 1467 1473 1481 1484 1479 1484 1487 1489 1491 1512 1491 1497 1505 1514 1530 1508 1541 1523 1515 1516 1519 1520 1521 1523 1526
1512 1508 1504 1500 1498 1496 1494 1492 1492 1492 1508 1447 1444 1442 1440 1444 1445 1446 1453 1460 1465 1466 1474 1479 1475 1482 1487 1480 1482 1490 1484 1491 1498 1512 1515 1517 1531 1512 1505 1513 1509 1510 1512 1516 1519
1510 1507 1502 1500 1498 1495 1491 1490 1492 1503 1501 1450 1438 1439 1443 1442 1440 1441 1446 1455 1458 1465 1465 1469 1466 1469 1470 1468 1472 1472 1483 1490 1503 1517 1540 1511 1523 1512 1507 1489 1494 1499 1505 1508 1513
1508 1504 1501 1498 1495 1493 1491 1491 1502 1506 1463 1450 1445 1444 1442 1442 1442 1437 1442 1451 1461 1479 1478 1469 1466 1464 1463 1472 1466 1477 1499 1531 1538 1543 1539 1509 1519 1489 1477 1475 1478 1487 1493 1501 1507
1505 1502 1498 1493 1490 1491 1491 1494 1499 1476 1469 1456 1456 1446 1445 1438 1437 1435 1438 1449 1448 1455 1479 1484 1487 1461 1460 1471 1482 1482 1495 1526 1545 1544 1525 1506 1519 1483 1456 1465 1473 1479 1483 1493 1500
1502 1499 1495 1493 1490 1489 1491 1502 1489 1479 1476 1472 1457 1453 1452 1447 1441 1435 1441 1435 1438 1444 1463 1481 1477 1449 1452 1456 1465 1482 1497 1478 1506 1518 1530 1512 1486 1464 1454 1460 1469 1477 1484 1488 1494
1501 1497 1495 1492 1490 1491 1494 1494 1488 1481 1481 1478 1482 1473 1471 1461 1455 1448 1440 1430 1435 1435 1436 1454 1473 1451 1446 1454 1459 1467 1470 1502 1516 1532 1534 1511 1498 1487 1468 1465 1467 1474 1477 1482 1488
1501 1496 1495 1492 1490 1493 1501 1499 1486 1484 1485 1484 1483 1481 1474 1472 1465 1457 1443 1428 1427 1434 1436 1446 1459 1456 1449 1454 1459 1470 1478 1487 1494 1510 1520 1522 1501 1461 1461 1458 1460 1465 1469 1475 1481
1502 1500 1494 1491 1494 1495 1497 1490 1486 1481 1486 1486 1483 1481 1477 1474 1470 1460 1450 1440 1431 1431 1439 1440 1458 1467 1455 1439 1440 1448 1463 1471 1500 1505 1511 1502 1494 1447 1448 1451 1455 1462 1468 1471 1476
1502 1498 1494 1490 1499 1500 1494 1490 1487 1484 1484 1484 1482 1477 1475 1479 1481 1465 1451 1431 1436 1435 1435 1436 1455 1475 1458 1452 1443 1450 1454 1462 1475 1488 1501 1503 1490 1447 1449 1453 1454 1456 1461 1468 1473
1505 1503 1496 1495 1497 1498 1497 1493 1488 1483 1484 1482 1478 1476 1475 1474 1475 1466 1455 1439 1435 1436 1430 1432 1445 1445 1462 1444 1443 1450 1447 1454 1461 1492 1489 1486 1465 1451 1452 1452 1451 1452 1454 1458 1466
1506 1505 1504 1501 1498 1498 1498 1494 1489 1486 1481 1480 1478 1474 1475 1476 1470 1464 1456 1450 1433 1428 1427 1426 1440 1440 1431 1437 1434 1436 1439 1449 1457 1459 1469 1460 1465 1446 1440 1442 1441 1441 1444 1454 1460
1506 1506 1505 1501 1498 1497 1495 1493 1490 1486 1486 1481 1478 1472 1471 1474 1468 1462 1456 1454 1444 1432 1435 1430 1433 1431 1439 1429 1431 1441 1436 1439 1440 1449 1445 1447 1450 1428 1430 1432 1433 1434 1442 1447 1451
1506 1505 1505 1500 1498 1497 1494 1493 1489 1490 1481 1477 1474 1476 1468 1461 1459 1456 1455 1451 1444 1445 1448 1446 1436 1436 1435 1432 1437 1447 1424 1430 1431 1433 1433 1450 1435 1424 1427 1428 1428 1431 1436 1438 1442
Wind_Speed
11 12 12 12 13 13 13 13 13 13 13 13 13 13 15 14 13 13 10 10 8 8 8 7 6 4 10 11 14 6 3 3 5 6 5 13 6 6 4 13 4 4 13 21 29
12 12 12 13 13 14 14 14 14 14 15 14 14 14 15 16 15 12 11 9 7 7 8 11 10 9 6 6 7 6 4 7 8 8 9 18 10 11 7 5 5 11 17 29 33
13 13 14 14 14 14 15 15 15 15 15 16 15 14 15 15 14 4 9 10 10 11 12 13 12 8 4 4 5 5 5 5 12 14 23 18 12 5 15 3 10 17 29 33 32
16 15 15 15 16 15 15 15 15 16 16 16 16 15 15 11 4 7 6 3 11 11 12 12 10 9 2 4 2 4 6 7 15 19 17 12 8 10 4 3 14 22 34 33 31
17 17 17 17 17 17 17 17 16 15 16 16 16 16 14 9 20 11 14 19 18 8 10 12 8 6 3 3 2 4 5 8 26 22 20 16 11 6 7 9 16 29 31 30 27
17 17 18 18 18 18 18 17 17 16 16 16 16 17 14 10 22 21 24 25 16 7 8 9 8 18 9 7 3 3 16 17 25 20 20 13 8 4 6 15 21 26 26 26 25
20 19 18 19 20 20 19 18 16 17 16 15 17 18 20 29 17 13 13 20 16 11 10 9 12 14 14 5 8 14 10 10 10 10 7 22 5 4 16 17 21 22 22 21 22
20 21 20 20 21 21 20 18 16 17 16 15 15 17 16 22 24 27 26 23 14 14 12 10 11 14 4 2 6 5 5 4 5 9 11 2 0 8 19 19 18 19 19 19 20
21 21 21 21 21 21 20 16 15 15 14 13 12 10 14 15 19 12 20 27 18 15 13 11 7 5 4 5 4 6 5 2 4 13 7 2 3 15 23 19 19 19 20 20 21
20 21 22 21 21 21 19 12 4 3 5 6 10 5 17 9 5 9 10 17 21 11 13 9 5 3 4 4 5 5 4 3 4 6 4 5 5 16 24 21 20 23 25 25 26
22 20 21 21 21 19 16 1 1 3 5 9 7 8 12 7 11 8 3 11 14 8 5 2 4 6 11 9 4 6 5 6 3 2 4 5 9 18 24 22 21 23 27 28 26
22 23 20 19 20 10 11 11 15 11 15 16 27 30 30 28 12 7 4 11 10 6 6 2 6 9 7 3 4 5 4 5 2 6 4 6 8 16 22 27 25 25 25 30 28
21 23 22 19 15 5 6 7 13 13 7 14 23 26 36 21 14 25 7 5 6 7 8 8 6 9 8 5 6 4 5 3 3 5 4 6 1 9 13 17 22 25 28 30 30
21 22 23 22 7 16 2 5 10 7 3 7 7 12 23 22 9 30 24 7 3 14 8 7 6 7 5 9 8 8 11 8 8 4 3 4 4 7 13 18 18 27 28 32 32
21 22 21 22 21 17 12 8 7 1 4 4 5 2 11 21 10 17 28 21 8 6 9 9 9 12 8 10 9 10 8 10 5 5 4 3 1 5 15 16 19 27 32 33 36
22 20 23 21 19 15 16 5 2 4 8 6 4 4 5 5 6 6 18 16 12 3 2 9 4 9 11 10 12 6 2 3 5 4 2 6 7 5 8 20 19 28 33 36 37
25 23 21 21 20 15 11 2 4 4 6 5 3 5 4 7 7 6 12 12 8 8 11 2 13 3 3 2 6 4 7 3 4 1 7 6 7 14 10 10 18 24 33 37 39
26 25 20 15 10 7 3 3 4 4 8 7 8 11 5 6 7 6 11 14 11 6 6 9 7 12 6 9 8 8 9 6 6 3 5 4 6 10 19 25 31 33 38 36 39
26 23 10 14 4 3 3 2 6 1 5 12 10 6 7 8 3 6 6 19 16 9 8 8 7 2 9 5 11 5 5 10 2 5 3 5 7 6 6 14 19 25 24 31 38
25 20 6 15 12 3 4 4 4 3 10 6 6 7 6 9 9 6 9 5 7 13 6 6 2 6 4 7 6 10 7 3 2 6 7 5 5 5 3 11 13 16 27 34 39
17 10 7 15 4 2 3 6 5 3 14 6 4 6 4 6 6 5 4 4 9 7 8 6 4 4 7 8 16 4 3 4 5 6 6 2 6 6 10 12 18 21 31 37 42
10 4 9 7 3 1 2 3 8 9 14 4 6 7 6 5 5 4 5 4 20 4 11 8 5 4 10 1 5 10 10 8 5 5 3 4 7 4 10 14 21 22 28 43 45
15 6 8 6 3 2 5 4 3 4 5 5 6 2 4 5 5 6 6 9 18 10 7 8 5 1 2 5 2 6 6 6 5 4 6 7 7 3 4 7 21 24 32 36 48
6 3 6 7 4 2 4 3 4 5 3 9 5 6 6 8 7 8 6 9 25 23 24 9 5 12 8 6 6 6 7 7 8 5 6 6 8 6 7 11 16 29 35 41 44
3 1 2 3 2 4 1 3 4 4 4 6 4 5 6 5 5 12 13 15 16 10 6 9 8 7 18 6 2 6 7 10 8 8 8 8 9 10 8 10 17 35 41 34 38
1 2 4 5 11 3 1 3 6 7 2 6 6 7 6 5 8 12 11 5 8 5 8 8 6 9 9 18 21 9 8 8 11 6 5 7 9 9 5 6 7 25 30 34 41
2 3 4 6 4 2 2 3 8 14 11 21 14 12 14 13 15 18 24 28 21 16 9 5 2 7 19 7 6 11 22 10 7 6 10 9 11 4 6 7 13 25 34 43 46
Wind_Direction
331 325 322 320 319 317 316 315 315 315 314 314 315 317 317 317 320 323 326 326 314 309 340 344 325 271 229 233 219 214 72 166 171 165 148 161 142 152 121 135 101 139 153 164 159
332 328 320 315 312 311 309 307 308 309 308 307 308 309 311 313 315 313 322 318 325 340 321 317 317 310 229 221 193 166 142 193 167 153 163 157 155 134 126 135 72 110 140 155 158
332 327 322 317 311 305 302 301 301 301 303 303 302 304 303 310 320 337 101 76 29 3 333 322 321 320 278 241 192 176 191 165 159 158 148 145 135 112 131 224 198 167 152 159 161
341 331 325 320 314 307 299 296 295 295 296 297 297 298 296 298 265 174 210 350 359 349 335 332 327 330 308 296 209 106 74 126 143 139 141 143 109 110 328 275 210 176 163 163 168
349 342 333 324 316 309 303 297 292 290 288 289 291 292 294 268 241 234 261 278 300 321 329 341 340 341 9 319 34 87 110 113 140 142 135 116 93 94 74 117 152 161 164 170 175
345 342 337 331 321 310 303 296 292 286 283 283 284 285 285 255 263 256 256 266 281 263 286 305 318 326 311 338 67 99 104 103 133 130 129 112 120 81 125 140 142 161 168 178 185
341 339 334 329 323 316 304 296 291 283 277 275 275 279 274 257 260 261 250 249 248 239 265 274 303 315 325 350 43 116 86 62 106 117 119 119 47 101 153 153 152 169 180 191 194
339 337 334 329 322 316 312 300 287 278 270 267 268 276 268 280 266 253 247 251 235 223 241 273 290 296 194 113 32 86 48 117 219 155 175 222 226 158 169 168 175 181 189 197 202
338 336 335 333 326 317 318 304 286 276 263 258 259 257 268 262 269 268 249 240 231 224 224 250 272 240 144 92 21 9 154 181 165 199 162 99 146 187 178 186 187 192 197 202 202
334 333 333 335 331 324 327 321 337 244 213 229 235 277 249 262 276 265 303 228 219 215 214 236 180 106 38 76 210 179 135 264 213 208 120 129 163 173 187 194 194 201 203 205 212
332 331 330 331 332 337 342 238 265 256 270 219 232 244 260 271 276 260 255 211 191 168 149 202 113 181 205 199 185 190 143 174 223 187 124 177 157 182 190 200 203 213 205 210 214
333 331 332 330 331 353 20 70 32 339 301 256 256 255 248 269 296 258 183 175 159 165 128 49 207 223 207 184 183 221 164 204 237 153 100 174 191 185 190 203 205 211 212 213 215
336 333 331 335 328 3 11 41 356 336 237 283 251 247 244 242 227 256 228 211 157 153 169 168 220 163 176 203 187 227 187 164 237 126 51 122 69 189 214 208 215 218 219 222 216
337 335 332 335 338 344 303 284 337 318 317 270 229 243 212 203 247 242 238 203 230 188 135 211 189 184 187 214 157 203 200 176 154 91 204 170 270 211 198 209 209 216 215 222 222
335 334 329 329 326 335 308 268 322 3 313 227 213 245 192 178 148 213 220 204 194 175 137 224 173 169 210 213 164 229 167 180 138 128 128 199 355 272 178 208 213 212 216 217 223
330 331 322 319 326 327 312 278 297 53 243 301 175 162 110 228 220 134 168 193 211 204 120 210 185 167 196 210 196 224 190 108 57 94 339 190 152 251 186 210 207 213 211 217 221
326 328 321 315 317 309 311 295 67 185 330 293 359 18 251 189 217 188 162 172 172 153 203 158 237 233 124 96 313 158 76 5 355 69 228 143 164 234 216 201 199 202 207 210 219
326 328 325 317 295 278 290 50 181 224 270 354 353 308 212 167 225 228 170 183 202 124 132 187 224 198 178 172 179 214 149 162 195 196 264 110 222 250 219 205 197 202 206 201 210
331 336 53 35 12 188 181 123 207 271 4 336 337 9 337 345 358 147 208 202 188 177 161 156 240 265 178 149 148 209 182 204 115 43 294 211 276 295 279 177 171 190 191 197 206
341 337 50 3 352 187 72 227 250 358 360 349 29 13 339 331 12 356 178 190 183 193 155 186 163 221 174 138 228 150 173 89 5 203 243 284 279 249 148 163 164 180 190 199 208
346 329 14 352 70 154 165 246 289 17 6 349 352 323 312 343 323 292 266 274 172 187 149 144 121 267 150 196 193 148 181 85 128 137 183 181 269 224 195 188 180 190 196 198 205
353 331 354 4 117 44 193 258 329 326 338 273 285 250 262 347 316 297 302 306 17 320 182 202 164 208 203 198 181 183 187 160 151 242 250 153 262 213 192 202 182 196 197 203 209
336 303 8 14 84 336 304 296 268 321 24 339 319 7 325 336 324 283 269 310 339 356 188 176 210 90 71 337 135 167 179 135 119 100 200 143 254 265 125 178 200 198 201 201 209
349 354 336 30 67 59 354 294 301 299 280 248 249 267 303 289 210 276 289 313 324 311 293 255 155 200 207 217 139 170 164 170 154 146 186 210 250 245 195 204 217 211 209 203 203
4 6 358 316 338 323 280 282 297 302 328 312 291 235 259 267 292 244 268 283 290 295 304 157 205 189 217 219 146 173 178 164 177 189 175 221 203 243 245 206 224 217 207 199 201
24 331 311 273 293 248 240 260 302 300 296 280 222 255 284 237 239 275 313 319 262 329 6 337 235 168 221 218 236 243 242 189 214 168 206 166 236 214 224 230 217 210 199 196 201
242 240 302 280 311 316 244 328 300 314 277 244 271 316 290 262 279 284 280 278 263 290 315 291 322 171 223 174 199 241 235 224 208 176 179 188 224 171 212 202 209 206 197 199 208